GW1546 Weather Reports


Display with metric or nautical units.
time (UTC)temp
F
wind
direction
speed
MPH
gust
MPH
rain 1hr
in
rain 24hr
in
rain mn
in
humidity
%
barometer
mb
20260502221839 53 270 0.0 2.0 0.00 0.00 0.00 50 987.4
20260502221254 54 273 1.0 3.0 0.00 0.00 0.00 50 987.1
20260502220621 54 263 0.0 1.0 0.00 0.00 0.00 46 987.1
20260502220030 54 258 1.0 3.0 0.00 0.00 0.00 43 987.1
20260502215411 54 300 4.0 7.0 0.00 0.00 0.00 45 987.1
20260502214823 55 326 6.0 9.0 0.00 0.00 0.00 43 987.1
20260502213651 56 290 4.0 6.0 0.00 0.00 0.00 41 987.1
20260502213041 54 255 3.0 6.0 0.00 0.00 0.00 43 987.1
20260502212448 54 293 8.0 9.0 0.00 0.00 0.00 44 987.1
20260502211814 54 304 3.0 9.0 0.00 0.00 0.00 43 986.7
20260502211238 54 209 4.0 8.0 0.00 0.00 0.00 43 986.7
20260502210627 55 282 0.0 7.0 0.00 0.00 0.00 46 986.7
20260502210034 55 127 1.0 8.0 0.00 0.00 0.00 44 986.7
20260502205414 55 245 0.0 3.0 0.00 0.00 0.00 46 986.7
20260502204235 55 200 2.0 4.0 0.00 0.00 0.00 45 987.1
20260502203612 55 207 4.0 9.0 0.00 0.00 0.00 45 987.1
20260502203052 55 245 1.0 4.0 0.00 0.00 0.00 47 987.1
20260502202443 54 192 3.0 8.0 0.00 0.00 0.00 44 987.1
20260502201845 54 298 3.0 8.0 0.00 0.00 0.00 45 987.1
20260502201211 54 348 3.0 4.0 0.00 0.00 0.00 44 987.1
20260502200650 55 226 4.0 4.0 0.00 0.00 0.00 44 987.1
20260502200039 54 209 3.0 10.0 0.00 0.00 0.00 44 987.1
20260502195414 54 275 5.0 7.0 0.00 0.00 0.00 44 987.4
20260502194838 55 231 5.0 7.0 0.00 0.00 0.00 43 987.4
20260502194248 54 281 3.0 6.0 0.00 0.00 0.00 44 987.4
20260502193634 55 319 2.0 6.0 0.00 0.00 0.00 43 987.4
20260502193038 55 245 2.0 6.0 0.00 0.00 0.00 45 987.4
20260502192426 54 301 2.0 6.0 0.00 0.00 0.00 45 987.8
20260502191852 53 277 2.0 2.0 0.00 0.00 0.00 47 987.4
20260502190615 53 266 4.0 6.0 0.00 0.00 0.00 47 987.4
20260502190018 54 273 2.0 7.0 0.00 0.00 0.00 46 987.8
20260502185437 54 238 3.0 7.0 0.00 0.00 0.00 45 987.8
20260502184255 54 232 4.0 6.0 0.00 0.00 0.00 46 987.8
20260502183654 54 236 6.0 7.0 0.00 0.00 0.00 46 987.8
20260502183016 54 231 2.0 6.0 0.00 0.00 0.00 46 987.8
20260502182440 54 243 4.0 8.0 0.00 0.00 0.00 47 987.8
20260502181833 54 253 2.0 4.0 0.00 0.00 0.00 50 988.1
20260502181254 53 324 2.0 4.0 0.00 0.00 0.00 47 987.8
20260502180621 53 247 3.0 4.0 0.00 0.00 0.00 48 987.8
20260502164244 53 101 1.0 6.0 0.00 0.00 0.00 49 988.4
20260502163631 54 284 6.0 8.0 0.00 0.00 0.00 47 988.4
20260502163054 54 81 1.0 3.0 0.00 0.00 0.00 47 988.4
20260502162442 54 322 1.0 4.0 0.00 0.00 0.00 49 988.4
20260502161816 54 310 2.0 8.0 0.00 0.00 0.00 47 988.4
20260502161221 55 273 4.0 8.0 0.00 0.00 0.00 46 988.1
20260502160623 53 196 2.0 4.0 0.00 0.00 0.00 46 988.4
20260502151833 54 296 6.0 12.0 0.00 0.00 0.00 50 989.1
20260502151241 54 229 2.0 3.0 0.00 0.00 0.00 51 988.8
20260502150650 54 200 1.0 3.0 0.00 0.00 0.00 52 989.1
20260502130631 47 50 0.0 1.0 0.00 0.00 0.00 83 989.1
20260502123635 43 349 0.0 0.0 0.00 0.00 0.00 93 989.1
20260502122440 41 226 0.0 0.0 0.00 0.00 0.00 98 989.1
20260502121222 40 226 0.0 0.0 0.00 0.00 0.00 98 988.8
20260502120644 39 226 0.0 0.0 0.00 0.00 0.00 98 988.8
20260502115451 39 226 0.0 0.0 0.00 0.00 0.00 98 989.1
20260502114813 39 226 0.0 0.0 0.00 0.00 0.00 98 989.1
20260502114232 39 226 0.0 0.0 0.00 0.00 0.00 98 988.8
20260502113611 38 226 0.0 0.0 0.00 0.00 0.00 98 989.1
20260502113039 38 226 0.0 0.0 0.00 0.00 0.00 98 989.1
20260502112437 38 226 0.0 1.0 0.00 0.00 0.00 99 989.1
20260502111828 38 226 0.0 0.0 0.00 0.00 0.00 99 988.8
20260502111226 38 226 1.0 1.0 0.00 0.00 0.00 99 989.1
20260502110017 37 226 0.0 0.0 0.00 0.00 0.00 99 988.4
20260502105418 37 216 0.0 0.0 0.00 0.00 0.00 99 988.8
20260502104829 37 227 0.0 0.0 0.00 0.00 0.00 99 988.4
20260502104217 37 228 0.0 0.0 0.00 0.00 0.00 99 988.8
20260502103635 37 228 0.0 1.0 0.00 0.00 0.00 99 988.4
20260502103043 37 228 1.0 1.0 0.00 0.00 0.00 99 988.8
20260502102419 37 228 0.0 1.0 0.00 0.00 0.00 99 988.8
20260502101846 37 228 0.0 0.0 0.00 0.00 0.00 99 989.1
20260502100630 37 228 0.0 0.0 0.00 0.00 0.00 98 989.1
20260502091252 38 229 0.0 0.0 0.00 0.00 0.00 97 989.1
20260502090624 38 229 0.0 0.0 0.00 0.00 0.00 97 989.5
20260502071224 40 230 0.0 1.0 0.00 0.00 0.00 92 988.8
20260502070652 40 229 0.0 1.0 0.00 0.00 0.00 91 988.8
20260502070035 40 223 1.0 1.0 0.00 0.00 0.00 91 988.8
20260502063651 41 221 0.0 0.0 0.00 0.00 0.00 88 988.8
20260502063042 42 220 0.0 0.0 0.00 0.00 0.00 87 988.8
20260502061814 42 233 1.0 1.0 0.00 0.00 0.00 86 988.8
20260502061249 42 233 0.0 0.0 0.00 0.00 0.00 84 988.8
20260502060622 43 201 1.0 1.0 0.00 0.00 0.00 83 988.8
20260502060047 43 236 0.0 1.0 0.00 0.00 0.00 83 989.1
20260502055448 44 235 0.0 2.0 0.00 0.00 0.00 82 988.8
20260502054820 44 220 0.0 1.0 0.00 0.00 0.00 81 989.1
20260502054251 44 229 0.0 2.0 0.00 0.00 0.00 81 989.1
20260502053021 44 234 0.0 0.0 0.00 0.00 0.00 79 988.8
20260502052415 45 234 0.0 1.0 0.00 0.00 0.00 78 989.1
20260502051826 45 234 0.0 0.0 0.00 0.00 0.00 77 988.8
20260502051220 46 234 0.0 0.0 0.00 0.00 0.00 76 989.1
20260502050628 46 235 0.0 0.0 0.00 0.00 0.00 75 989.1
20260502050039 46 234 0.0 1.0 0.00 0.00 0.00 75 989.1
20260502045433 46 242 0.0 1.0 0.00 0.00 0.00 74 988.8
20260502044838 47 242 0.0 1.0 0.00 0.00 0.00 74 989.1
20260502043629 48 265 0.0 1.0 0.00 0.00 0.00 73 989.1
20260502043043 48 172 1.0 1.0 0.00 0.00 0.00 69 989.1
20260502042435 49 358 0.0 1.0 0.00 0.00 0.00 70 988.8
20260502041810 49 289 0.0 2.0 0.00 0.00 0.00 67 989.1
20260502041217 49 272 4.0 4.0 0.00 0.00 0.00 69 989.1
20260502040649 50 225 2.0 3.0 0.00 0.00 0.00 64 988.8
20260502040019 50 268 2.0 3.0 0.00 0.00 0.00 63 989.1
20260502035442 50 221 1.0 2.0 0.00 0.00 0.00 65 988.8
20260502034810 50 215 0.0 3.0 0.00 0.00 0.00 64 989.1
20260502034246 50 283 0.0 1.0 0.00 0.00 0.00 64 988.8
20260502033649 51 300 0.0 1.0 0.00 0.00 0.00 65 989.1
20260502033012 51 207 1.0 6.0 0.00 0.00 0.00 63 988.8
20260502032426 51 223 2.0 6.0 0.00 0.00 0.00 63 989.1
20260502031841 51 341 3.0 8.0 0.00 0.00 0.00 62 989.1
20260502031213 52 277 3.0 4.0 0.00 0.00 0.00 62 988.8
20260502030616 52 203 3.0 7.0 0.00 0.00 0.00 66 988.8
20260502030046 52 311 4.0 8.0 0.00 0.00 0.00 66 988.8
20260502025414 52 282 1.0 6.0 0.00 0.00 0.00 68 988.8
20260502024827 52 244 1.0 7.0 0.00 0.00 0.00 68 989.1
20260502024219 53 279 3.0 7.0 0.00 0.00 0.00 68 988.4
20260502023624 53 159 3.0 7.0 0.00 0.00 0.00 69 988.4
20260502023047 53 270 1.0 4.0 0.00 0.00 0.00 69 988.4
20260502022427 53 222 5.0 7.0 0.00 0.00 0.00 69 988.4
20260502021812 53 258 3.0 11.0 0.00 0.00 0.00 69 988.4
20260502021234 53 282 1.0 2.0 0.00 0.00 0.00 71 988.1
20260502020614 53 291 3.0 4.0 0.00 0.00 0.00 69 988.4
20260502020036 53 196 1.0 8.0 0.00 0.00 0.00 70 988.1
20260502015431 53 218 0.0 2.0 0.00 0.00 0.00 70 987.8
20260502014842 53 191 1.0 4.0 0.00 0.00 0.00 71 987.4
20260502014227 53 266 1.0 2.0 0.00 0.00 0.00 74 987.4
20260502013620 53 247 0.0 1.0 0.00 0.00 0.00 73 987.1
20260502013036 53 255 0.0 1.0 0.00 0.00 0.00 71 987.1
20260502012450 53 237 0.0 0.0 0.00 0.00 0.00 74 987.1
20260502011841 53 249 0.0 1.0 0.00 0.00 0.00 73 987.1
20260502011224 53 240 1.0 1.0 0.00 0.00 0.00 73 986.7
20260502010625 54 242 1.0 2.0 0.00 0.00 0.00 71 987.1
20260502010053 54 253 0.0 1.0 0.00 0.00 0.00 69 986.7
20260502005446 54 261 1.0 1.0 0.00 0.00 0.00 66 986.7
20260502004843 54 237 1.0 1.0 0.00 0.00 0.00 66 986.7
20260502004227 54 49 2.0 2.0 0.00 0.00 0.00 65 986.7
20260502003649 55 282 2.0 4.0 0.00 0.00 0.00 66 986.4
20260502002449 55 285 4.0 10.0 0.00 0.00 0.00 64 986.4
20260502001832 56 276 3.0 7.0 0.00 0.00 0.00 61 986.1
20260502001246 56 291 5.0 8.0 0.00 0.00 0.00 61 986.1
20260502000031 56 297 6.0 9.0 0.00 0.00 0.00 60 986.1
20260501235453 57 291 6.0 8.0 0.00 0.00 0.00 60 985.7
20260501234840 57 313 4.0 11.0 0.00 0.00 0.00 59 985.4
20260501234253 57 238 2.0 2.0 0.00 0.00 0.00 64 985.4
20260501233644 58 215 2.0 3.0 0.00 0.00 0.00 63 985.1
20260501233024 58 256 0.0 3.0 0.00 0.00 0.00 63 985.1
20260501232442 58 240 3.0 4.0 0.00 0.00 0.00 62 985.1
20260501231817 58 235 1.0 2.0 0.00 0.00 0.00 63 985.1
20260501231255 58 241 3.0 3.0 0.00 0.00 0.00 62 984.7
20260501230650 58 172 2.0 4.0 0.00 0.00 0.00 63 984.7
20260501230036 58 258 5.0 11.0 0.00 0.00 0.00 62 985.1
20260501225415 59 263 5.0 11.0 0.00 0.00 0.00 61 984.7
20260501224827 59 256 3.0 4.0 0.00 0.00 0.00 63 985.1
20260501224233 59 289 6.0 8.0 0.00 0.00 0.00 63 985.1
20260501223616 59 236 1.0 3.0 0.00 0.00 0.00 62 984.7
20260501223053 59 318 2.0 4.0 0.00 0.00 0.00 61 984.7
20260501222451 59 271 2.0 3.0 0.00 0.00 0.00 61 984.7